This is the latest recevied weather packets stored in our database for station/object EI4HQ. If no packets are shown the sender has not sent any weather packets the latest 10 day(s).
| Time | Temp. | Humidity | Pressure | Rain* | Wind** | Luminosity | Snow |
|---|---|---|---|---|---|---|---|
| 1777575243 | 10.56° C | 90% | 1015.7 hPa | 0.25 mm | - | - | - |
| 1777574703 | 10.56° C | 90% | 1015.6 hPa | 0.51 mm | - | - | - |
| 1777574163 | 10.56° C | 90% | 1015.7 hPa | 1.78 mm | - | - | - |
| 1777573623 | 10.56° C | 90% | 1015.6 hPa | 3.05 mm | - | - | - |
| 1777573083 | 10.56° C | 90% | 1015.6 hPa | 3.3 mm | - | - | - |
| 1777572543 | 10.56° C | 90% | 1015.7 hPa | 4.32 mm | - | - | - |
| 1777572003 | 10° C | 90% | 1015.5 hPa | 5.08 mm | - | - | - |
| 1777571643 | 10° C | 90% | 1015.5 hPa | 5.08 mm | - | - | - |
| 1777571103 | 10° C | 90% | 1015.6 hPa | 5.33 mm | - | - | - |
| 1777570563 | 10.56° C | 90% | 1015.5 hPa | 5.08 mm | - | - | - |
| 1777570023 | 10.56° C | 90% | 1015.6 hPa | 4.06 mm | - | - | - |
| 1777569483 | 10.56° C | 90% | 1015.6 hPa | 3.81 mm | - | - | - |
| 1777568943 | 10.56° C | 90% | 1015.5 hPa | 3.3 mm | - | - | - |
| 1777568403 | 10.56° C | 90% | 1015.6 hPa | 2.54 mm | - | - | - |
| 1777568043 | 10.56° C | 90% | 1015.7 hPa | 2.29 mm | - | - | - |
| 1777567503 | 10.56° C | 90% | 1015.8 hPa | 2.54 mm | - | - | - |
| 1777566963 | 10.56° C | 90% | 1015.4 hPa | 2.03 mm | - | - | - |
| 1777566423 | 10.56° C | 90% | 1015.6 hPa | 2.29 mm | - | - | - |
| 1777565883 | 10.56° C | 90% | 1015.8 hPa | 2.29 mm | - | - | - |
| 1777565343 | 10.56° C | 90% | 1015.9 hPa | 1.78 mm | - | - | - |
| 1777564803 | 10.56° C | 89% | 1016.1 hPa | 1.78 mm | - | - | - |
| 1777564443 | 10.56° C | 89% | 1016.3 hPa | 1.78 mm | - | - | - |
| 1777563903 | 10.56° C | 89% | 1016.2 hPa | 1.52 mm | - | - | - |
| 1777563363 | 10.56° C | 89% | 1016.4 hPa | 1.52 mm | - | - | - |
| 1777562823 | 10.56° C | 89% | 1016.4 hPa | 1.27 mm | - | - | - |
* Rain latest hour (hover to see other rain measurements)
** Current wind speed in m/s (hover to see current wind gust speed)